Home   Weather   Decatur   Past weeks

Flag for USA Past Weather in Decatur, Illinois, USA — Yesterday and Last 2 Weeks

Now
76 °F

Sunny.


Feels Like: 76 °F
Forecast: 44 / 75 °F
Wind: 13 mph from Southeast

Location: Decatur Airport

Current Time: Apr 24, 2017 at 2:28:39 pm

Latest Report: Apr 24, 2017 at 1:54 pm


Visibility: 10 mi

Pressure: 29.86 "Hg

Humidity: 21%

Dew Point: 33 °F

Location of DecaturLocation

Past Weather in Decatur — Graph

°F

Decatur Temperature Yesterday

Maximum temperature yesterday: 71 °F (at 3:54 pm)
Minimum temperature yesterday: 36 °F (at 4:54 am)
Average temperature yesterday: 54 °F

High & Low Weather Summary for the Past Weeks

 TemperatureHumidityPressure
High81 °F (Apr 14, 1:54 pm)100% (Apr 10, 10:54 pm)30.40 "Hg (Apr 10, 10:54 pm)
Low36 °F (Apr 12, 6:54 am)23% (Apr 24, 12:54 pm)29.70 "Hg (Apr 9, 5:54 pm)
Average61 °F67%30.06 "Hg
* Reported Apr 9 12:54 pm — Apr 24 12:54 pm, Decatur, Weather by CustomWeather, © 2017

Note: Actual official high and low records may vary slightly from our data, if they occured in-between our weather recording intervals... More about our weather records

Advertising

Decatur Weather History for the Previous 24 Hours

Scroll right to see more
 ConditionsComfort  
Time TempWeatherWind HumidityBarometerVisibility
12:54 pm
Mon, Apr 24
73 °FSunny.6 mph23%29.90 "Hg10 mi
11:54 am71 °FSunny.10 mph27%29.93 "Hg10 mi
10:54 am69 °FSunny.10 mph30%29.95 "Hg10 mi
9:54 am66 °FSunny.8 mph36%29.97 "Hg10 mi
8:54 am61 °FSunny.9 mph42%29.98 "Hg10 mi
7:54 am54 °FSunny.6 mph59%29.98 "Hg10 mi
6:54 am42 °FSunny.3 mph62%29.98 "Hg10 mi
5:54 am41 °FClear.6 mph65%29.97 "Hg10 mi
4:54 am40 °FClear.6 mph63%29.97 "Hg10 mi
3:54 am45 °FClear.5 mph51%29.98 "Hg10 mi
2:54 am45 °FClear.No wind51%29.97 "Hg10 mi
1:54 am45 °FClear.5 mph51%29.99 "Hg10 mi
12:54 am44 °FClear.7 mph60%30.00 "Hg10 mi
11:54 pm
Sun, Apr 23
46 °FClear.10 mph61%30.00 "Hg10 mi
10:54 pm50 °FClear.8 mph48%30.00 "Hg10 mi
9:54 pm52 °FClear.6 mph45%30.01 "Hg10 mi
8:54 pm54 °FClear.8 mph41%30.01 "Hg10 mi
7:54 pm61 °FClear.6 mph30%30.00 "Hg10 mi
6:54 pm65 °FSunny.10 mph29%30.00 "Hg10 mi
5:54 pm69 °FSunny.12 mph24%30.01 "Hg10 mi
4:54 pm71 °FSunny.13 mph25%30.01 "Hg10 mi
3:54 pm71 °FSunny.10 mph26%30.03 "Hg10 mi
2:54 pm70 °FSunny.18 mph29%30.03 "Hg10 mi
Weather by CustomWeather, © 2017

See weather overviewHow to use our weather pages